Location: Newark
(49.2191°N, 12.6671°E)
Time: 18:44:03
(UTC+00:00)

Transit 4A - Pass Details

Date: 01 February 2020
Orbit: 872 x 973 km, 66.8° (Epoch: 26 February)

Event Time Altitude Azimuth Distance (km) Brightness Sun altitude
Rises 03:37:27 0° 190° (S) 3,537 - -30.1°
Reaches altitude 10° 03:40:06 10° 183° (S) 2,584 - -29.7°
Exits shadow 03:41:52 19° 174° (S) 1,994 9.6 -29.4°
Maximum altitude 03:45:39 41° 115° (ESE) 1,266 8.9 -28.8°
Drops below altitude 10° 03:51:07 10° 47° (NE) 2,547 10.8 -27.9°
Sets 03:53:42 0° 40° (NE) 3,481 11.5 -27.5°
